TimeMDT,TemperatureF,Dew PointF,Humidity,Sea Level PressureIn,VisibilityMPH,Wind Direction,Wind SpeedMPH,Gust SpeedMPH,PrecipitationIn,Events,Conditions,WindDirDegrees,DateUTC
12:55 AM,37.9,37.0,97,29.57,10.0,SE,12.7,-,0.03,Rain,Light Rain,140,2013-04-13 06:55:00
1:46 AM,37.4,35.6,93,29.52,10.0,SSE,15.0,-,0.04,Rain,Light Rain,150,2013-04-13 07:46:00
1:53 AM,37.4,35.6,93,29.51,9.0,SSE,15.0,-,0.04,Rain,Light Rain,150,2013-04-13 07:53:00
1:55 AM,37.0,35.1,93,29.54,9.0,SSE,16.1,-,0.04,Rain,Light Rain,150,2013-04-13 07:55:00
2:25 AM,37.4,35.6,93,29.49,10.0,SSE,12.7,-,0.01,Rain,Light Rain,160,2013-04-13 08:25:00
2:55 AM,37.0,36.0,96,29.50,10.0,South,9.2,-,0.02,,Overcast,170,2013-04-13 08:55:00
3:45 AM,37.4,37.4,100,29.47,10.0,South,8.1,-,0.00,Rain,Light Rain,190,2013-04-13 09:45:00
3:55 AM,36.0,36.0,100,29.50,10.0,South,8.1,-,0.00,Rain,Light Rain,180,2013-04-13 09:55:00
4:12 AM,37.4,35.6,93,29.47,10.0,SSE,8.1,-,0.00,Rain,Light Rain,160,2013-04-13 10:12:00
4:55 AM,37.0,37.0,100,29.49,10.0,South,10.4,-,0.01,Rain,Light Rain,170,2013-04-13 10:55:00
5:55 AM,37.0,36.0,96,29.49,10.0,SSE,10.4,-,0.00,,Overcast,160,2013-04-13 11:55:00
6:55 AM,37.0,35.1,93,29.49,10.0,SSE,11.5,-,N/A,,Overcast,160,2013-04-13 12:55:00
7:55 AM,39.0,30.9,73,29.48,10.0,SSW,8.1,-,N/A,,Overcast,200,2013-04-13 13:55:00
8:55 AM,39.0,34.0,82,29.49,10.0,SSE,6.9,-,N/A,,Overcast,150,2013-04-13 14:55:00
9:55 AM,39.9,33.1,77,29.48,10.0,South,5.8,-,N/A,,Overcast,190,2013-04-13 15:55:00
10:20 AM,33.8,30.2,87,29.45,1.0,WSW,24.2,36.8,0.00,Snow,Light Snow,250,2013-04-13 16:20:00
10:24 AM,32.0,30.2,93,29.47,0.5,WSW,20.7,34.5,0.03,Fog-Snow,Snow,240,2013-04-13 16:24:00
10:26 AM,32.0,30.2,93,29.47,0.2,WSW,17.3,34.5,0.06,Fog-Snow,Heavy Snow,240,2013-04-13 16:26:00
10:33 AM,32.0,30.2,93,29.47,0.5,SW,17.3,24.2,0.11,Fog-Snow,Light Snow,230,2013-04-13 16:33:00
10:41 AM,33.8,28.4,81,29.47,10.0,WSW,12.7,24.2,0.11,Snow,Light Snow,240,2013-04-13 16:41:00
10:55 AM,34.0,28.0,79,29.53,10.0,SSW,5.8,-,0.12,,Overcast,210,2013-04-13 16:55:00
11:55 AM,36.0,26.1,67,29.57,10.0,SW,12.7,17.3,N/A,,Overcast,230,2013-04-13 17:55:00
12:55 PM,37.9,24.1,57,29.60,10.0,SW,11.5,-,N/A,,Overcast,230,2013-04-13 18:55:00
1:55 PM,39.0,21.9,50,29.61,10.0,WSW,11.5,20.7,N/A,,Overcast,240,2013-04-13 19:55:00
2:55 PM,41.0,23.0,49,29.62,10.0,SW,13.8,20.7,N/A,,Overcast,230,2013-04-13 20:55:00
3:55 PM,42.1,23.0,47,29.62,10.0,WSW,12.7,20.7,0.00,,Overcast,240,2013-04-13 21:55:00
4:55 PM,43.0,21.0,42,29.62,10.0,West,12.7,-,N/A,,Overcast,270,2013-04-13 22:55:00
5:55 PM,41.0,21.2,45,29.60,10.0,WSW,3.5,-,N/A,,Overcast,250,2013-04-13 23:55:00
6:55 PM,39.0,24.1,55,29.67,10.0,SW,10.4,-,N/A,,Overcast,230,2013-04-14 00:55:00
7:55 PM,37.9,25.0,60,29.69,10.0,Calm,Calm,-,N/A,,Overcast,0,2013-04-14 01:55:00
8:55 PM,37.9,23.0,55,29.71,10.0,SW,5.8,-,0.00,,Overcast,220,2013-04-14 02:55:00
9:55 PM,35.1,28.9,78,29.75,8.0,Calm,Calm,-,0.00,Snow,Light Snow,0,2013-04-14 03:55:00
10:55 PM,33.1,30.9,92,29.78,5.0,Calm,Calm,-,0.00,Snow,Light Snow,0,2013-04-14 04:55:00
11:55 PM,32.0,30.9,96,29.79,3.0,SE,4.6,-,0.01,Snow,Light Snow,130,2013-04-14 05:55:00